Location: Newark
(48.6461°N, 4.3644°W)
Time: 01:45:03
(UTC+00:00)

STARLINK 1058 - Pass Details

Date: 10 December 2019
Orbit: 549 x 550 km, 53.0° (Epoch: 28 January)

Event Time Altitude Azimuth Distance (km) Brightness Sun altitude
Maximum altitude 05:40:18 57° 213° (SSW) 651 3.8 -21.8°
Exits shadow 05:40:19 57° 212° (SSW) 651 3.8 -21.8°
Drops below altitude 10° 05:44:21 10° 135° (SE) 1,817 7.0 -21.1°
Enters shadow 06:41:04 -68° 323° (NW) 12,443 10.4 -12.1°
